This is the latest recevied weather packets stored in our database for station/object NB9X. If no packets are shown the sender has not sent any weather packets the latest 10 day(s).
| Time | Temp. | Humidity | Pressure | Rain* | Wind** | Luminosity | Snow |
|---|---|---|---|---|---|---|---|
| 1787845777 | 33.33° C | 100% | 1015.7 hPa | 0 mm | - | - | - |
| 1787845477 | 33.33° C | 100% | 1015.8 hPa | 0 mm | - | - | - |
| 1787845177 | 33.89° C | 100% | 1015.8 hPa | 0 mm | - | - | - |
| 1787844877 | 32.78° C | 100% | 1015.7 hPa | 0 mm | - | - | - |
| 1787844577 | 33.33° C | 100% | 1015.6 hPa | 0 mm | - | - | - |
| 1787844277 | 32.78° C | 100% | 1015.5 hPa | 0 mm | - | - | - |
| 1787843977 | 32.78° C | 100% | 1015.5 hPa | 0 mm | - | - | - |
| 1787843677 | 32.22° C | 100% | 1015.4 hPa | 0 mm | - | - | - |
| 1787843377 | 32.22° C | 100% | 1015.4 hPa | 0 mm | - | - | - |
| 1787843077 | 32.78° C | 100% | 1015.4 hPa | 0 mm | - | - | - |
| 1787842777 | 32.22° C | 100% | 1015.5 hPa | 0 mm | - | - | - |
| 1787842477 | 32.78° C | 100% | 1015.4 hPa | 0 mm | - | - | - |
| 1787842177 | 32.22° C | 100% | 1015.2 hPa | 0 mm | - | - | - |
| 1787841877 | 31.67° C | 100% | 1015.3 hPa | 0 mm | - | - | - |
| 1787841577 | 31.67° C | 100% | 1015.4 hPa | 0 mm | - | - | - |
| 1787841277 | 31.67° C | 100% | 1015.3 hPa | 0 mm | - | - | - |
| 1787840977 | 31.67° C | 100% | 1015.3 hPa | 0 mm | - | - | - |
| 1787840677 | 31.67° C | 100% | 1015.3 hPa | 0 mm | - | - | - |
| 1787840377 | 31.67° C | 100% | 1015.4 hPa | 0 mm | - | - | - |
| 1787840077 | 31.67° C | 100% | 1015.4 hPa | 0 mm | - | - | - |
| 1787839777 | 31.11° C | 100% | 1015.3 hPa | 0 mm | - | - | - |
| 1787839477 | 31.11° C | 100% | 1015.3 hPa | 0 mm | - | - | - |
| 1787839177 | 31.11° C | 100% | 1015.3 hPa | 0 mm | - | - | - |
| 1787838877 | 31.11° C | 100% | 1015.3 hPa | 0 mm | - | - | - |
| 1787838577 | 30.56° C | 100% | 1015.2 hPa | 0 mm | - | - | - |
* Rain latest hour (hover to see other rain measurements)
** Current wind speed in m/s (hover to see current wind gust speed)